Location: College Park
(38.9810°N, 76.9370°W)
Time: 20:12:44

Envisat - Pass Details

Date: 13 March 2018
Orbit: 764 x 766 km, 98.2° (Epoch: 23 March)

Event Time Altitude Azimuth Distance (km) Brightness Sun altitude
Rises 20:49:19 0° 174° (S) 3,216 6.0 -19.4°
Reaches altitude 10° 20:51:38 10° 177° (S) 2,294 5.3 -19.9°
Maximum altitude 20:56:39 63° 259° (WSW) 850 3.4 -20.8°
Drops below altitude 10° 21:01:42 10° 341° (NNW) 2,309 5.9 -21.8°
Sets 21:04:02 0° 344° (NNW) 3,239 6.7 -22.2°
